Change the Weather History Date:

Friday, September 27, 2013

  Actual Average Record
Temperature  
Mean Temperature 47 °F 54 °F  
Max Temperature 55 °F 69 °F 89 °F (1969)
Min Temperature 39 °F 39 °F 26 °F (1964)
Degree Days  
Heating Degree Days 18 11  
Month to date heating degree days 120 177  
Since 1 July heating degree days 120 234  
Cooling Degree Days 0 0  
Month to date cooling degree days 54 19  
Year to date cooling degree days 642 363  
Moisture  
Dew Point 36 °F    
Average Humidity 69    
Maximum Humidity 100    
Minimum Humidity 38    
Precipitation  
Precipitation T in 0.03 in 0.33 in (1983)
Month to date precipitation 1.37 0.49  
Year to date precipitation 4.07 7.25  
Sea Level Pressure  
Sea Level Pressure 30.02 in    
Wind  
Wind Speed 10 mph (West)    
Max Wind Speed 20 mph    
Max Gust Speed 28 mph    
Visibility 10 miles    
Events Rain    
T = Trace of Precipitation, MM = Missing Value Source: NWS Daily Summary

Daily Weather History Graph

Daily Weather History Graph

Search for Another Location

Airport or City:

Trip Planner

Search our weather history database for the weather conditions in past years. The results will help you decide how hot, cold, wet, or windy it might be!

Date:

Astronomy

Sep. 27, 2013 Rise Set
Actual Time 7:28 AM MDT 7:22 PM MDT
Civil Twilight 7:00 AM MDT 7:50 PM MDT
Nautical Twilight 6:27 AM MDT 8:23 PM MDT
Astronomical Twilight 5:54 AM MDT 8:56 PM MDT
Moon 12:20 AM MDT (9/27) 3:10 PM MDT (9/27)
Length of Visible Light 12h 50m
Length of Day
11h 54m
Last Quarter, 44% of the Moon is Illuminated
Sep 27
Last Quarter
Oct 4
New
Oct 11
First Quarter
Oct 18
Full
Oct 26
Last Quarter

Hourly Weather History & Observations

Time (MDT) Temp. Windchill Dew Point Humidity Pressure Visibility Wind Dir Wind Speed Gust Speed Precip Events Conditions
12:10 AM 37.4 °F 33.8 °F 37.4 °F 100% 29.94 in 10.0 mi WSW 4.6 mph - N/A   Overcast
12:20 AM 39.2 °F 35.9 °F 37.4 °F 93% 29.94 in 10.0 mi West 4.6 mph - N/A   Overcast
12:29 AM 39.2 °F 35.9 °F 39.2 °F 100% 29.94 in 10.0 mi West 4.6 mph - N/A   Overcast
12:53 AM 41.0 °F 35.2 °F 39.9 °F 96% 29.93 in 6.0 mi WSW 9.2 mph - 0.00 in Rain Light Rain
1:24 AM 39.2 °F 33.6 °F 39.2 °F 100% 29.94 in 5.0 mi West 8.1 mph - 0.00 in   Overcast
1:53 AM 39.9 °F 35.1 °F 39.9 °F 100% 29.93 in 4.0 mi West 6.9 mph - 0.00 in   Overcast
2:08 AM 39.2 °F 34.2 °F 39.2 °F 100% 29.95 in 7.0 mi West 6.9 mph - N/A   Overcast
2:44 AM 39.2 °F 34.2 °F 39.2 °F 100% 29.95 in 10.0 mi West 6.9 mph - N/A   Overcast
2:53 AM 39.9 °F 34.5 °F 39.0 °F 97% 29.93 in 10.0 mi West 8.1 mph - N/A   Overcast
3:23 AM 39.2 °F 35.0 °F 39.2 °F 100% 29.95 in 9.0 mi West 5.8 mph - N/A   Overcast
3:51 AM 39.2 °F 35.9 °F 39.2 °F 100% 29.95 in 10.0 mi West 4.6 mph - N/A   Overcast
3:53 AM 39.9 °F 35.8 °F 39.9 °F 100% 29.94 in 10.0 mi Variable 5.8 mph - N/A   Overcast
4:53 AM 39.9 °F 33.9 °F 39.0 °F 97% 29.94 in 10.0 mi West 9.2 mph - N/A   Overcast
5:53 AM 39.9 °F 33.4 °F 39.0 °F 97% 29.95 in 10.0 mi West 10.4 mph 21.9 mph N/A   Overcast
6:53 AM 41.0 °F 34.3 °F 39.0 °F 93% 29.98 in 10.0 mi West 11.5 mph 17.3 mph N/A   Overcast
7:40 AM 39.2 °F 31.6 °F 37.4 °F 93% 30.00 in 9.0 mi West 12.7 mph 18.4 mph N/A   Overcast
7:53 AM 39.9 °F 32.9 °F 37.9 °F 93% 30.01 in 10.0 mi West 11.5 mph 21.9 mph N/A   Overcast
8:11 AM 39.2 °F 33.0 °F 37.4 °F 93% 30.01 in 10.0 mi West 9.2 mph 19.6 mph N/A   Overcast
8:53 AM 39.0 °F 31.8 °F 36.0 °F 89% 30.03 in 10.0 mi West 11.5 mph 20.7 mph 0.00 in   Overcast
9:49 AM 39.2 °F 31.2 °F 35.6 °F 87% 30.05 in 10.0 mi West 13.8 mph 18.4 mph N/A   Overcast
9:53 AM 39.9 °F 34.5 °F 35.1 °F 83% 30.05 in 10.0 mi West 8.1 mph 18.4 mph N/A   Overcast
10:53 AM 39.9 °F 35.8 °F 36.0 °F 86% 30.08 in 10.0 mi West 5.8 mph - N/A   Overcast
11:08 AM 41.0 °F 35.8 °F 35.6 °F 81% 30.07 in 10.0 mi West 8.1 mph - N/A   Overcast
11:49 AM 42.8 °F 37.5 °F 37.4 °F 81% 30.07 in 10.0 mi WNW 9.2 mph - 0.00 in   Overcast
11:53 AM 43.0 °F 39.5 °F 37.0 °F 80% 30.08 in 10.0 mi Variable 5.8 mph - 0.00 in   Overcast
12:40 PM 48.2 °F - 37.4 °F 66% 30.07 in 10.0 mi West 10.4 mph 16.1 mph 0.00 in Rain Light Rain
12:53 PM 48.9 °F - 36.0 °F 61% 30.06 in 10.0 mi West 9.2 mph 17.3 mph 0.00 in Rain Light Rain
1:53 PM 50.0 °F - 34.0 °F 54% 30.05 in 10.0 mi West 10.4 mph 20.7 mph 0.00 in Rain Light Rain
2:53 PM 51.1 °F - 30.9 °F 46% 30.04 in 10.0 mi West 11.5 mph 19.6 mph 0.00 in   Scattered Clouds
3:53 PM 54.0 °F - 32.0 °F 43% 30.05 in 10.0 mi West 13.8 mph 20.7 mph 0.00 in   Scattered Clouds
4:53 PM 54.0 °F - 30.9 °F 41% 30.05 in 10.0 mi West 13.8 mph 25.3 mph N/A   Partly Cloudy
5:53 PM 53.1 °F - 28.9 °F 40% 30.06 in 10.0 mi West 17.3 mph 27.6 mph N/A   Clear
6:53 PM 50.0 °F - 30.9 °F 48% 30.06 in 10.0 mi West 11.5 mph 23.0 mph N/A   Clear
7:53 PM 48.0 °F - 32.0 °F 54% 30.09 in 10.0 mi West 9.2 mph - N/A   Mostly Cloudy
8:53 PM 46.9 °F - 33.1 °F 59% 30.12 in 10.0 mi South 12.7 mph 17.3 mph N/A   Overcast
9:53 PM 45.0 °F 41.8 °F 34.0 °F 65% 30.14 in 10.0 mi SW 5.8 mph - N/A   Mostly Cloudy
10:53 PM 44.1 °F 38.6 °F 33.1 °F 65% 30.14 in 10.0 mi SSW 10.4 mph - N/A   Clear
11:53 PM 42.1 °F 36.6 °F 32.0 °F 67% 30.12 in 10.0 mi SSW 9.2 mph - N/A   Partly Cloudy